TIME,�g��[���C[MJ/h],����[MJ/h],�Ɩ�[MJ/h],�~�[[MJ/h],�①��[MJ/h],��y���[MJ/h],�Ǝ��q��[MJ/h],���̑��s��[MJ/h],�u�����`������[MJ/h]
2005/3/1 0:00,1.60128,0,1.42128,0.0216,0,0.2232,0.18144,0,-0.06336
2005/3/1 0:15,1.63152,0,1.4256,0.02448,0.06336,0.22896,0.08208,0,-0.06048
2005/3/1 0:30,1.6272,0,1.37952,0.03168,0.43776,0.22752,0.08784,0,-0.10944
2005/3/1 0:45,1.67616,0,1.2312,0.02592,0.17136,0.22896,0.07776,0,-0.05472
2005/3/1 1:00,0.81216,0,0.792,0.0216,0,0.2304,0.08928,0,0.08928
2005/3/1 1:15,0,0,0.3744,0.02304,0.24048,0.22896,0.11664,0,0.04032
2005/3/1 1:30,0,0,0.16704,0.02448,0.41328,0.23184,0.06048,0,0.01584
2005/3/1 1:45,0,0,0.2088,0.0216,0,0.23184,0.0936,0,0.06048
2005/3/1 2:00,0,0,0.18,0.0216,0,0.2304,0.08496,0,0.04896
2005/3/1 2:15,0,0,0.17712,0.02304,0.35856,0.22896,0.08208,0,0.02016
2005/3/1 2:30,0,0,0.17712,0.02448,0.2592,0.22896,0.12384,0,0.02736
2005/3/1 2:45,0,0,0.16848,0.0216,0,0.22752,0.11808,0,0.06336
2005/3/1 3:00,0,0,0.16848,0.0216,0.08928,0.23328,0.0864,0,0.04896
2005/3/1 3:15,0,0,0.17856,0.0288,0.44064,0.22464,0.0864,0,-0.0072
2005/3/1 3:30,0,0,0.1728,0.02304,0.12528,0.23184,0.05904,0,0.04896
2005/3/1 3:45,0,0,0.16992,0.0216,0,0.23328,0.0504,0,0.06336
2005/3/1 4:00,0,0,0.14832,0.03024,0.18288,0.22896,0.1224,0,0.0144
2005/3/1 4:15,0,0,0.15552,0.02448,0.4392,0.23184,0.144,0,-0.00288
2005/3/1 4:30,0,0,0.18288,0.0216,0,0.22752,0.08208,0,0.05328
2005/3/1 4:45,0,0,0.17568,0.0216,0,0.22608,0.1512,0,0.05328
2005/3/1 5:00,0.0072,0,0.18144,0.02592,0.25776,0.23184,0.0864,0,0.0216
2005/3/1 5:15,4.43808,0,0.45072,0.77328,0.34704,0.22896,0.04896,0,-0.17424
2005/3/1 5:30,3.24576,0,0.50832,0.91296,0.0648,0.2304,0.15552,0,-0.13536
2005/3/1 5:45,3.21984,0,0.42336,1.11168,0.43488,0.22896,0.0864,0,-0.12384
2005/3/1 6:00,2.99808,0,0.4176,0.96768,0.2016,0.23328,0.10512,0,-0.11664
2005/3/1 6:15,2.8512,0,0.41616,0.072,0,0.23184,0.10368,0,0.15696
2005/3/1 6:30,2.70864,0,0.43776,0.0864,0.15552,0.22752,0.07488,0,0.18432
2005/3/1 6:45,2.59776,0,1.22688,0.0792,0.4392,0.22896,0.05328,0,-0.02592
2005/3/1 7:00,2.54592,0,1.65888,0.07056,0.06624,0.2376,0.14544,0,-0.0792
2005/3/1 7:15,2.4984,0,1.7928,0.08064,0,0.22608,0.6048,0,-0.15552
2005/3/1 7:30,2.62512,0,1.91088,1.25136,0.38448,0.28656,0.19728,0,-0.29232
2005/3/1 7:45,2.54736,0,1.88064,0.10656,0.26784,0.40752,0.57168,0,-0.15408
2005/3/1 8:00,2.37744,0,1.6848,0.09648,0,0.44352,0.38592,0,-0.17568
2005/3/1 8:15,2.31408,0,0.85248,0.10512,0.16272,0.44352,0.0864,0,-0.17568
2005/3/1 8:30,2.78496,0,0.82368,0.11088,0.45072,0.42624,0.09216,0,-0.06624
2005/3/1 8:45,2.86848,0,0.80928,0.10368,0.09504,0.44928,0.0864,0,0.00576
2005/3/1 9:00,2.12256,0,0.70992,0.09792,0,0.44208,0.06048,0,-0.16704
2005/3/1 9:15,0,0,0.45792,0.144,0.34848,0.42768,0.08928,0,0.00288
2005/3/1 9:30,0,0,0.48384,0.10368,0.34416,0.89424,0.1512,0,-0.11376
2005/3/1 9:45,0,0,0.20592,0.09504,0.00288,0.64656,0.08928,0,-0.0216
2005/3/1 10:00,0,0,0.19152,0.09648,0.0288,0.38016,0.08928,0,0.01872
2005/3/1 10:15,0,0,0.2016,0.11088,0.45216,0.44208,0.08928,0,-0.05904
2005/3/1 10:30,0,0,0.22032,0.1008,0.17856,0.44208,0.08784,0,-0.04464
2005/3/1 10:45,0,0,0.22032,0.10656,0,0.42912,0.0504,0,-0.0144
2005/3/1 11:00,0,0,0.3456,0.09936,0.18288,0.41184,0.18144,0,-0.0792
2005/3/1 11:15,0,0,0.24192,0.09792,0.44784,0.40464,0.0864,0,0.0216
2005/3/1 11:30,0,0,0.21456,0.34272,0.0288,0.24336,0.09072,0,0.01584
2005/3/1 11:45,0,0,0.19296,0.2232,0,0.22752,0.05472,0,0.04464
2005/3/1 12:00,0,0,0.20448,0.14832,0.38592,0.23904,0.15984,0,0.00576
2005/3/1 12:15,0,0,0.17712,0.07632,0.24192,0.23328,0.12096,0,0.036
2005/3/1 12:30,0,0,0.18576,0.07056,0,0.22752,0.08496,0,0.05328
2005/3/1 12:45,0,0,0.18144,0.06624,0.11088,0.22464,0.0864,0,0.03168
2005/3/1 13:00,0,0,0.18144,0.07632,0.43776,0.22464,0.08784,0,0.0072
2005/3/1 13:15,0,0,0.19296,0.60192,0.11808,0.42768,0.09072,0,0.01008
2005/3/1 13:30,0,0,0.216,0.11232,0,0.4536,0.05328,0,-0.02016
2005/3/1 13:45,0,0,0.18864,0.09936,0.18288,0.45072,0.08784,0,-0.01152
2005/3/1 14:00,0,0,0.23328,0.108,0.44352,0.44208,0.06048,0,-0.06192
2005/3/1 14:15,0,0,0.22608,0.10224,0.01872,0.4392,0.0864,0,-0.00864
2005/3/1 14:30,0,0,0.19584,0.10224,0,0.44784,0.09504,0,-0.01296
2005/3/1 14:45,0,0,0.26208,0.108,0.31536,0.4464,0.09648,0,-0.0432
2005/3/1 15:00,0.61056,0,0.2664,0.1008,0.31824,0.44064,0.08928,0,-0.08928
2005/3/1 15:15,0,0,0.21888,0.10368,0,0.44352,0.072,0,0.0072
2005/3/1 15:30,3.36816,0,0.7632,0.108,0.01152,0.31968,0.1368,0,-0.468
2005/3/1 15:45,2.36736,0,0.88128,0.11232,0.44064,0.2304,0.1224,0,-0.10512
2005/3/1 16:00,2.70432,0,0.86112,0.10944,0.504,0.22608,0.09504,0,-0.15408
2005/3/1 16:15,3.456,0,1.10592,0.09936,0.55584,0.23184,0.10512,0,-0.30528
2005/3/1 16:30,4.17888,0,1.2312,0.27072,0.55584,0.2304,0.08928,0,-0.3456
2005/3/1 16:45,3.74688,0,1.25136,0.3024,0.4176,0.2232,0.09072,0,-0.26208
2005/3/1 17:00,3.63024,0,1.24704,0.1368,0.50544,0.23328,0.09936,0,-0.27648
2005/3/1 17:15,3.08736,0,0.81648,0.0864,0.45936,0.39744,0.09936,0,-0.24912
2005/3/1 17:30,3.03408,0,0.9432,0.07344,0.44208,0.44496,0.1008,0,-0.28368
2005/3/1 17:45,2.97216,0,1.19952,0.06912,0.11088,0.44928,0.10368,0,-0.22464
2005/3/1 18:00,2.92032,0,1.42272,0.0648,0,0.27216,0.09648,0,-0.19152
2005/3/1 18:15,2.90304,0,1.36944,0.07344,0.38016,0.22752,0.10368,0,-0.23184
2005/3/1 18:30,3.13344,0,1.19808,0.09216,0.45648,0.32112,0.07056,0,-0.20736
2005/3/1 18:45,3.40704,0,1.1592,0.10368,0.42192,0.44496,0.16848,0,-0.21168
2005/3/1 19:00,3.70656,0,1.6056,0.16128,0.03024,0.32688,0.12672,0,-0.23904
2005/3/1 19:15,3.89088,0,1.98864,0.28368,0,0.22752,0.1224,0,-0.32688
2005/3/1 19:30,3.8808,0,1.86192,0.2736,0.32832,0.22608,0.08928,0,-0.30384
2005/3/1 19:45,3.74976,0,1.9512,0.29376,0.42768,0.23328,0.09072,0,-0.33696
2005/3/1 20:00,3.46032,0,2.0664,0.288,0.05472,0.42048,0.09072,0,-0.39312
2005/3/1 20:15,3.37824,0,2.76768,0.27936,0,0.4968,0.09072,0,0.62064
2005/3/1 20:30,3.24144,0,2.5488,0.02592,0.4464,0.6912,0.12528,0,1.53936
2005/3/1 20:45,3.07152,0,1.50768,0.03024,0.4104,0.7488,0.08928,0,1.65168
2005/3/1 21:00,3.03408,0,1.59984,0.0216,0,0.29088,0.12096,0,1.85904
2005/3/1 21:15,3.07584,0,1.50768,0.0216,0.03312,0.32976,0.15552,0,1.84464
2005/3/1 21:30,3.0024,0,1.5768,0.036,0.45072,0.43632,0.08784,0,1.74672
2005/3/1 21:45,3.0816,0,1.84608,0.0216,0.26784,0.44352,0.08784,0,0.65376
2005/3/1 22:00,2.9808,0,2.14848,0.0216,0,0.4392,0.16704,0,-0.32832
2005/3/1 22:15,3.01248,0,2.00304,0.02592,0.2304,0.41184,0.0936,0,-0.3168
2005/3/1 22:30,3.1464,0,2.00304,0.03312,0.44064,0.42624,0.0936,0,-0.37152
2005/3/1 22:45,3.18672,0,2.14992,0.0216,0,0.42336,0.09072,0,0.57312
2005/3/1 23:00,1.56096,0,2.67408,0.0216,0.036,0.24336,0.05472,0,1.56672
2005/3/1 23:15,1.39248,0,2.6784,0.036,0.4392,0.22896,0.29088,0,1.39824
2005/3/1 23:30,1.21824,0,2.21184,0.02592,0.26064,0.22752,0.5544,0,1.48608
2005/3/1 23:45,1.21392,0,2.08944,0.0216,0,0.22896,0.08928,0,1.5768
2005/3/2 0:00,1.2312,0,1.43712,0.02304,0.2088,0.23616,0.0576,0,1.55808
2005/3/2 0:15,1.2168,0,1.96992,0.02448,0.44064,0.23328,0.12816,0,1.40976
2005/3/2 0:30,1.35072,0,1.99152,0.0216,0.036,0.22752,0.0936,0,1.45008
2005/3/2 0:45,1.33488,0,1.99728,0.0216,0,0.23472,0.0936,0,1.47456
2005/3/2 1:00,1.50624,0,2.04624,0.0288,0.36,0.22752,0.0576,0,1.22112
2005/3/2 1:15,1.7856,0,1.57104,0.02448,0.22752,0.23328,0.08496,0,1.19952
2005/3/2 1:30,0.8064,0,0.7056,0.0216,0,0.23472,0.05472,0,0.85248
2005/3/2 1:45,0,0,0.16416,0.02448,0.23472,0.23328,0.09504,0,0.03888
2005/3/2 2:00,0,0,0.18144,0.03024,0.39024,0.22752,0.144,0,0.00864
2005/3/2 2:15,0,0,0.18,0.0216,0,0.22608,0.08352,0,0.05472
2005/3/2 2:30,0,0,0.16992,0.0216,0.08496,0.23328,0.06192,0,0.0504
2005/3/2 2:45,0,0,0.18144,0.03024,0.4392,0.23328,0.12096,0,-0.01008
2005/3/2 3:00,0,0,0.18,0.02304,0.01296,0.23184,0.06912,0,0.06336
2005/3/2 3:15,0,0,0.17568,0.0216,0,0.2304,0.05904,0,0.06192
2005/3/2 3:30,0,0,0.16848,0.03744,0.43056,0.2304,0.16704,0,-0.00576
2005/3/2 3:45,0,0,0.16992,0.02448,0.15264,0.23328,0.09648,0,0.03888
2005/3/2 4:00,0,0,0.1728,0.0216,0,0.22896,0.09792,0,0.06192
2005/3/2 4:15,0,0,0.16272,0.02736,0.26928,0.2232,0.12384,0,0.01728
2005/3/2 4:30,0,0,0.17568,0.02304,0.28944,0.23616,0.09072,0,0.03168
2005/3/2 4:45,0.28512,0,0.21888,0.0216,0,0.2304,0.0936,0,-0.036
2005/3/2 5:00,4.81536,0,0.15408,0.0216,0.14112,0.23328,0.15552,0,-0.12384
2005/3/2 5:15,2.96784,0,0.43632,0.85392,0.4248,0.23472,0.09504,0,-0.0576
2005/3/2 5:30,2.83536,0,0.80352,2.12112,0.01872,0.22752,0.12528,0,-0.01152
2005/3/2 5:45,2.63376,0,0.89424,0.82224,0.4104,0.22896,0.09216,0,-0.05904
2005/3/2 6:00,2.64816,0,0.99792,0.28368,0.20736,0.23616,0.16704,0,0.0288
2005/3/2 6:15,2.34864,0,0.99792,0.072,0,0.2376,0.0936,0,0.0432
2005/3/2 6:30,2.73168,0,1.24992,0.06768,0.31104,0.31536,0.0936,0,-0.06048
2005/3/2 6:45,2.48688,0,1.7424,0.80784,0.30384,0.44784,0.12816,0,-0.19728
2005/3/2 7:00,2.42496,0,1.8576,1.34352,0.0144,0.45504,0.11808,0,-0.2304
2005/3/2 7:15,2.8872,0,2.0448,0.09936,0.19008,0.4464,0.0864,0,-0.2592
2005/3/2 7:30,2.81952,0,2.05056,0.10224,0.44208,0.43776,0.51984,0,-0.2376
2005/3/2 7:45,2.60352,0,2.13408,0.10512,0.00144,0.41184,0.47808,0,-0.36288
2005/3/2 8:00,2.55456,0,2.08656,0.108,0.02304,0.41616,0.40464,0,-0.29808
2005/3/2 8:15,2.76048,0,0.91296,0.10512,0.42048,0.4464,0.15984,0,0.05616
2005/3/2 8:30,1.77696,0,0.63216,0.108,0.04464,0.4392,0.10224,0,-0.04752
2005/3/2 8:45,0.25488,0,0.59616,0.10368,0,0.44784,0.36576,0,-0.08208
2005/3/2 9:00,0.27648,0,0.63504,0.1152,0.43632,0.4464,0.6048,0,-0.144
2005/3/2 9:15,0.29088,0,0.58464,0.11088,0.13968,0.44208,0.0936,0,-0.07776
2005/3/2 9:30,0.2736,0,0.38016,0.10944,0,0.4392,0.0864,0,0.03312
2005/3/2 9:45,0.2736,0,0.26928,0.11232,0.35424,0.39168,0.1008,0,-0.05328
2005/3/2 10:00,0.2592,0,0.29232,0.11088,0.13392,0.44784,0.1224,0,-0.00432
2005/3/2 10:15,0.20736,0,0.28656,0.10224,0,0.44064,0.1224,0,-0.01152
2005/3/2 10:30,0.30672,0,0.29376,0.11376,0.27648,0.43776,0.08784,0,-0.0216
2005/3/2 10:45,0.30096,0,0.32832,0.10368,0.2016,0.4464,0.0576,0,-0.06624
2005/3/2 11:00,0.30096,0,0.2736,0.1008,0,0.44064,0.07488,0,-0.02016
2005/3/2 11:15,0.26208,0,0.25776,0.108,0.23616,0.41472,0.12528,0,0.07056
2005/3/2 11:30,0.2736,0,0.27648,0.2736,0.29808,0.4248,0.06336,0,-0.04896
2005/3/2 11:45,0.2736,0,0.27216,0.20448,0,0.44496,0.05904,0,-0.01728
2005/3/2 12:00,0.2376,0,0.27648,0.1224,0.19584,0.44928,0.09648,0,-0.02304
2005/3/2 12:15,0.32256,0,0.2952,0.07632,0.32112,0.4392,0.0936,0,-0.05184
2005/3/2 12:30,0.29664,0,0.288,0.0648,0,0.44784,0.0936,0,-0.05328
2005/3/2 12:45,0.31248,0,0.26784,0.0648,0.21024,0.44496,0.19008,0,-0.0576
2005/3/2 13:00,0.2736,0,0.2592,0.0864,0.3168,0.4248,0.08784,0,-0.02592
2005/3/2 13:15,0.27504,0,0.30384,0.10224,0,0.44064,0.0576,0,0.02016
2005/3/2 13:30,0.16704,0,0.22896,0.108,0.14256,0.4392,0.09936,0,0.03168
2005/3/2 13:45,0.27504,0,0.2592,0.11664,0.33984,0.43776,0.08496,0,-0.0144
2005/3/2 14:00,0.07488,0,0.288,0.1008,0,0.44928,0.08928,0,0.01296
2005/3/2 14:15,0,0,0.30672,0.10224,0.0576,0.44928,0.09216,0,-0.00864
2005/3/2 14:30,0,0,0.30096,0.11088,0.39744,0.4896,0.0504,0,0.00576
2005/3/2 14:45,0,0,0.36864,0.09648,0,0.86256,0.06048,0,-0.00288
2005/3/2 15:00,0,0,0.37584,0.09936,0.06048,0.83088,0.16272,0,-0.0288
2005/3/2 15:15,0,0,0.22752,0.10512,0.4464,0.74448,0.14976,0,-0.0936
2005/3/2 15:30,0,0,0.21744,0.09936,0.4464,0.23184,0.08784,0,-0.04176
2005/3/2 15:45,0,0,0.30384,0.09792,0.09072,0.22752,0.11232,0,0.00288
2005/3/2 16:00,0.1944,0,0.40032,0.0936,0,0.22608,0.08208,0,0.74016
2005/3/2 16:15,3.09024,0,0.58608,0.10368,0.30528,0.22752,0.0936,0,-0.04176
2005/3/2 16:30,4.63104,0,0.84096,0.29088,0.43632,0.23328,0.0792,0,-0.11376
2005/3/2 16:45,3.8232,0,0.88848,0.18,0.19584,0.22752,0.05616,0,-0.15984
2005/3/2 17:00,3.64032,0,0.96768,0.11664,0,0.22752,0.12672,0,-0.15264
2005/3/2 17:15,3.40704,0,1.10736,0.07776,0.09504,0.22896,0.12672,0,-0.20016
2005/3/2 17:30,3.30048,0,1.0944,0.06768,0.44784,0.22752,0.1512,0,-0.20592
2005/3/2 17:45,3.14064,0,1.476,0.06912,0.42624,0.22608,0.07632,0,-0.24192
2005/3/2 18:00,3.05424,0,1.98864,0.09648,0.252,0.22608,0.05616,0,-0.31104
2005/3/2 18:15,2.5704,0,2.15136,0.08784,0,0.22896,0.18144,0,-0.38736
2005/3/2 18:30,2.20896,0,2.37456,0.108,0.3096,0.2376,0.09072,0,-0.3168
2005/3/2 18:45,2.60496,0,2.9376,0.10224,0.42768,0.2376,0.09216,0,-0.2088
2005/3/2 19:00,1.87488,0,2.77056,1.55664,0.48096,0.23472,0.08208,0,-0.57312
2005/3/2 19:15,1.03392,0,2.55168,0.02592,0.42768,0.22608,0.0864,0,-0.22176
2005/3/2 19:30,1.23408,0,2.48544,0.0288,0.53424,0.23328,0.09216,0,-0.22176
2005/3/2 19:45,0.70848,0,2.53008,0.0288,0.54,0.27936,0.08208,0,-0.288
2005/3/2 20:00,2.05776,0,2.3112,0.02304,0.432,0.48384,0.0864,0,-0.37728
2005/3/2 20:15,1.28448,0,2.11824,0.02592,0.5256,0.81936,0.08352,0,-0.28368
2005/3/2 20:30,1.1808,0,1.9728,0.02592,0.50256,0.75888,0.14976,0,-0.18288
2005/3/2 20:45,1.5048,0,1.872,0.02448,0.48816,0.7992,0.0864,0,-0.28368
2005/3/2 21:00,3.3624,0,2.23488,0.03024,0.4536,0.59472,0.1872,0,-0.42192
2005/3/2 21:15,2.96784,0,2.19024,0.02448,0.4536,0.22896,0.09504,0,-0.37008
2005/3/2 21:30,3.1824,0,2.23776,0.02304,0.34704,0.23184,0.0504,0,-0.19872
2005/3/2 21:45,3.38832,0,2.43072,0.0216,0,0.32976,0.13392,0,-0.37584
2005/3/2 22:00,3.22416,0,2.01888,0.0216,0.07056,0.42336,0.0864,0,-0.38592
2005/3/2 22:15,3.46608,0,2.10672,0.036,0.45792,0.26496,0.05328,0,-0.50688
2005/3/2 22:30,3.168,0,2.79216,0.04032,0.43344,0.2304,0.05616,0,-0.43776
2005/3/2 22:45,2.98368,0,2.52432,0.0216,0.14112,0.22752,0.08784,0,-0.28656
2005/3/2 23:00,2.12832,0,2.39328,0.0216,0,0.29232,0.11808,0,-0.06192
2005/3/2 23:15,0.60912,0,1.72368,0.02304,0.23184,0.22608,0.08496,0,1.73952
2005/3/2 23:30,0,0,1.71792,0.03168,0.432,0.23184,1.10448,0,1.42272
2005/3/2 23:45,0.0288,0,1.1088,0.0216,0.13104,0.2304,0.30528,0,0.28656
2005/3/3 0:00,0.0504,0,0.9792,0.0216,0,0.2304,0.08208,0,-0.07776
2005/3/3 0:15,0,0,0.66816,0.02736,0.32832,0.22752,0.06768,0,-0.00864
2005/3/3 0:30,0,0,0.63792,0.02592,0.40464,0.22752,0.0864,0,-0.00144
2005/3/3 0:45,0,0,0.63072,0.0216,0,0.22896,0.09072,0,0.05328
2005/3/3 1:00,0,0,0.1512,0.0216,0,0.23472,0.13824,0,0.06912
2005/3/3 1:15,0,0,0.17136,0.02448,0.42912,0.22896,0.08352,0,0.00288
2005/3/3 1:30,0,0,0.1728,0.0216,0.29376,0.22752,0.08928,0,0.01008
2005/3/3 1:45,0,0,0.16848,0.0216,0,0.22752,0.0576,0,0.06048
2005/3/3 2:00,0,0,0.17856,0.0216,0,0.22752,0.05328,0,0.05616
2005/3/3 2:15,0,0,0.16128,0.02304,0.4464,0.22608,0.1512,0,0.0144
2005/3/3 2:30,0,0,0.1656,0.0288,0.1728,0.22752,0.08928,0,0.04896
2005/3/3 2:45,0,0,0.16848,0.0216,0,0.23472,0.0936,0,0.05616
2005/3/3 3:00,0,0,0.16992,0.02304,0.08352,0.2232,0.08352,0,0.05184
2005/3/3 3:15,0,0,0.1656,0.02304,0.43776,0.23184,0.12384,0,0.00432
2005/3/3 3:30,0,0,0.18576,0.02304,0.11664,0.22608,0.15552,0,0.04032
2005/3/3 3:45,0,0,0.17856,0.0216,0,0.2304,0.0936,0,0.05616
2005/3/3 4:00,0,0,0.16992,0.02304,0.15552,0.22752,0.09504,0,0.04032
2005/3/3 4:15,0,0,0.17136,0.02736,0.44064,0.23184,0.0864,0,0.00576
2005/3/3 4:30,0,0,0.17856,0.0216,0.03024,0.22896,0.05472,0,0.0576
2005/3/3 4:45,0,0,0.21456,0.0216,0,0.22896,0.18,0,0.0432
2005/3/3 5:00,2.90592,0,0.39024,0.0288,0.26064,0.22464,0.08064,0,-0.0144
2005/3/3 5:15,3.13344,0,0.43632,1.25856,0.39024,0.23184,0.0576,0,-0.04752
2005/3/3 5:30,2.97648,0,0.55296,1.85904,0.0216,0.2304,0.0576,0,-0.072
2005/3/3 5:45,2.32416,0,0.66096,0.24048,0,0.22608,0.16128,0,-0.00864
2005/3/3 6:00,2.13408,0,0.63216,0.11232,0.41328,0.22752,0.09504,0,0.03168
2005/3/3 6:15,2.29248,0,0.648,0.08352,0.36288,0.23184,0.1224,0,-0.1512
2005/3/3 6:30,2.16288,0,0.64944,0.07056,0,0.23184,0.09216,0,0.08352
2005/3/3 6:45,2.29248,0,1.6056,0.1224,0.13248,0.30384,0.06048,0,-0.036
2005/3/3 7:00,2.34288,0,2.1384,0.11664,0.44496,0.46368,0.16272,0,-0.18144
2005/3/3 7:15,2.13984,0,2.03472,1.116,0.0288,0.4464,0.09504,0,-0.1656
2005/3/3 7:30,2.14128,0,2.04624,0.10656,0,0.43344,0.08784,0,-0.14832
2005/3/3 7:45,2.17152,0,1.89648,0.10944,0.44352,0.42336,0.1512,0,-0.22896
2005/3/3 8:00,2.0232,0,1.08,0.10512,0.15264,0.42336,0.57168,0,-0.13536
2005/3/3 8:15,2.49264,0,1.11888,0.09504,0,0.43776,0.58752,0,-0.21024
2005/3/3 8:30,2.39904,0,0.95184,0.11232,0.36288,0.43344,0.57024,0,-0.18144
2005/3/3 8:45,2.40624,0,0.72288,0.10224,0.24912,0.45216,0.26208,0,0.02304
2005/3/3 9:00,2.35008,0,0.21888,0.10224,0,0.45072,0.10368,0,-0.0504
2005/3/3 9:15,0.68112,0,0.18864,0.10224,0.2376,0.51696,0.08928,0,0.072
2005/3/3 9:30,0,0,0.1944,0.11664,0.24624,0.65952,0.08784,0,-0.02016
2005/3/3 9:45,0,0,0.19872,0.1008,0,0.6408,0.04896,0,-0.0072
2005/3/3 10:00,0,0,0.54144,0.1008,0.252,0.57312,1.51056,0,-0.29952
2005/3/3 10:15,0,0,0.93024,0.10368,0.32832,0.39456,3.45888,0,-0.83952
2005/3/3 10:30,0,0,0.30816,0.09936,0,0.396,0.83232,0,-0.07632
2005/3/3 10:45,0,0,0.28224,0.10944,0.13536,0.3816,0.08352,0,-0.02736
2005/3/3 11:00,0,0,0.47376,0.1152,0.42192,0.58032,0.08928,0,-0.11952
2005/3/3 11:15,0,0,0.648,0.09792,0,0.5976,0.09504,0,-0.08064
2005/3/3 11:30,0,0,0.69264,0.29808,0.06336,0.58464,0.08496,0,-0.06624
2005/3/3 11:45,0,0,0.85104,0.25344,0.43776,0.60192,0.0792,0,-0.11376
2005/3/3 12:00,0,0,0.62208,0.1008,0.0216,0.60624,0.05904,0,-0.0504
2005/3/3 12:15,0,0,0.64512,1.07568,0.1368,0.59904,0.12384,0,-0.20736
2005/3/3 12:30,0,0,0.65232,0.21024,0.48096,0.58608,0.16992,0,-0.1368
2005/3/3 12:45,0,0,0.61776,0.0216,0.15264,0.5976,0.0864,0,-0.0648
2005/3/3 13:00,0.37728,0,0.62928,0.0216,0,0.60336,0.08784,0,-0.07632
2005/3/3 13:15,0.36864,0,0.684,0.02592,0.21744,0.59184,0.08208,0,-0.12528
2005/3/3 13:30,0.46656,0,0.6192,0.02448,0.43776,0.59616,0.0864,0,-0.14688
2005/3/3 13:45,0.35568,0,0.63072,0.0216,0,0.59616,0.09072,0,-0.108
2005/3/3 14:00,0.3528,0,0.67392,0.0216,0,0.60048,0.04608,0,-0.1224
2005/3/3 14:15,0.29376,0,0.38016,0.0216,0.33264,0.5976,0.1152,0,-0.11952
2005/3/3 14:30,0.24192,0,0.2664,0.03168,0.27072,0.56736,0.08496,0,-0.06048
2005/3/3 14:45,0.34272,0,0.27504,0.0216,0,0.38592,0.08352,0,-0.06768
2005/3/3 15:00,0.31536,0,0.2448,0.02592,0.13248,0.3816,0.08928,0,-0.06048
2005/3/3 15:15,0.3024,0,0.24768,0.03168,0.4464,0.37584,0.07776,0,-0.03888
2005/3/3 15:30,0.29664,0,0.2304,0.02304,0.03456,0.38592,0.04752,0,-0.00864
2005/3/3 15:45,0.38304,0,0.33984,0.0216,0,0.38304,0.08064,0,-0.072
2005/3/3 16:00,0.31392,0,0.46368,0.02736,0.31968,0.3816,0.0864,0,-0.05904
2005/3/3 16:15,0.23904,0,0.23184,0.03312,0.31248,0.38304,0.05472,0,-0.04896
2005/3/3 16:30,0.33984,0,0.43488,0.02304,0.00144,0.3816,0.0504,0,-0.03744
2005/3/3 16:45,0.26928,0,0.82656,0.02736,0.1368,0.37872,0.04896,0,-0.0504
2005/3/3 17:00,0.31248,0,0.88128,0.02448,0.45648,0.64224,0.04896,0,-0.1656
2005/3/3 17:15,0.33264,0,0.8352,0.02304,0.26784,0.68976,0.05472,0,-0.12384
2005/3/3 17:30,0.36864,0,1.2168,0.02304,0.09072,0.90432,0.15264,0,-0.20448
2005/3/3 17:45,0.92016,0,2.60352,0.02592,0.46224,0.54144,0.08784,0,-0.39888
2005/3/3 18:00,2.67408,0,2.8296,0.02448,0.44064,0.37152,0.07776,0,-0.54432
2005/3/3 18:15,2.4624,0,2.35584,0.02736,0.31104,0.3816,0.08784,0,-0.41904
2005/3/3 18:30,3.5928,0,2.14416,0.0216,0,0.37728,0.08208,0,-0.80784
2005/3/3 18:45,4.01904,0,2.1528,0.02304,0.02016,0.38016,0.07776,0,-0.432
2005/3/3 19:00,3.5784,0,2.1456,0.02736,0.4608,0.37728,0.15696,0,-0.44496
2005/3/3 19:15,3.17232,0,2.1312,0.02304,0.45792,0.38304,0.14256,0,-0.43056
2005/3/3 19:30,2.95344,0,2.48112,0.02304,0.15408,0.37584,0.0864,0,-0.56448
2005/3/3 19:45,2.79072,0,2.78352,0.0216,0,0.37728,0.08784,0,-0.18864
2005/3/3 20:00,3.14784,0,2.82096,0.0216,0.29232,0.38016,0.08208,0,-0.36288
2005/3/3 20:15,2.56896,0,2.86992,0.02448,0.4536,0.37728,0.08784,0,-0.37296
2005/3/3 20:30,2.42496,0,2.7864,0.02592,0.28368,0.3816,0.08208,0,1.70928
2005/3/3 20:45,2.36304,0,2.76624,0.0216,0,0.67824,0.04608,0,1.7208
2005/3/3 21:00,2.68272,0,2.55168,0.0288,0.36144,0.66384,0.09216,0,1.70928
2005/3/3 21:15,2.56608,0,2.28672,0.02304,0.47088,0.95472,0.08496,0,0.98496
2005/3/3 21:30,2.5992,0,1.872,0.03024,0.504,0.97632,0.08208,0,-0.49968
2005/3/3 21:45,2.52576,0,1.66896,0.03456,0.54432,0.65232,0.0792,0,-0.2952
2005/3/3 22:00,2.68992,0,1.86768,0.03168,0.54432,0.56592,0.08496,0,-0.46512
2005/3/3 22:15,1.5696,0,2.39616,0.02304,0.4392,0.4824,0.36864,0,-0.2664
2005/3/3 22:30,1.61856,0,2.50416,0.02736,0.52272,0.42192,0.4248,0,-0.3456
2005/3/3 22:45,1.76544,0,2.3544,0.0288,0.50256,0.42768,0.08208,0,-0.36
2005/3/3 23:00,1.46016,0,2.11536,0.02448,0.47664,0.42912,0.04464,0,-0.1944
2005/3/3 23:15,1.81296,0,2.09376,0.0288,0.468,0.51552,0.0576,0,-0.2736
2005/3/3 23:30,1.87632,0,1.68048,0.02592,0.27216,0.61632,0.08784,0,-0.23616
2005/3/3 23:45,2.0232,0,1.61856,0.0216,0,0.3168,0.0792,0,-0.21168
2005/3/4 0:00,1.99728,0,1.45152,0.0216,0.28368,0.2304,0.0864,0,-0.15408
2005/3/4 0:15,0.8856,0,1.71216,0.0216,0.46944,0.22464,0.1152,0,-0.13104
2005/3/4 0:30,0.08352,0,1.1808,0.02592,0.17856,0.2304,0.08064,0,-0.036
2005/3/4 0:45,0,0,0.6336,0.0216,0,0.22752,0.04464,0,0.0576
2005/3/4 1:00,0,0,0.45936,0.02592,0.34704,0.23472,0.05328,0,0.03312
2005/3/4 1:15,0,0,0.16848,0.0288,0.45648,0.23472,0.05328,0,0.00576
2005/3/4 1:30,0,0,0.16848,0.0216,0.0288,0.22896,0.05328,0,0.05472
2005/3/4 1:45,0,0,0.17856,0.0216,0.03024,0.22896,0.08208,0,0.05904
2005/3/4 2:00,0,0,0.1872,0.03456,0.44784,0.22608,0.12384,0,-0.0072
2005/3/4 2:15,0,0,0.18432,0.02304,0.16704,0.23328,0.14688,0,0.0288
2005/3/4 2:30,0,0,0.16992,0.0216,0,0.23184,0.11808,0,0.05904
2005/3/4 2:45,0,0,0.17712,0.02592,0.29664,0.23472,0.08064,0,0.01296
2005/3/4 3:00,0,0,0.17424,0.02448,0.32112,0.23472,0.08208,0,0.01872
2005/3/4 3:15,0,0,0.16416,0.0216,0,0.2304,0.07632,0,0.07488
2005/3/4 3:30,0,0,0.16272,0.0216,0.0288,0.23616,0.08352,0,0.05616
2005/3/4 3:45,0,0,0.1656,0.0288,0.44928,0.23328,0.05616,0,0.0144
2005/3/4 4:00,0,0,0.17136,0.02592,0.11808,0.23184,0.05472,0,0.05616
2005/3/4 4:15,0,0,0.17424,0.0216,0,0.23472,0.04752,0,0.06768
2005/3/4 4:30,3.10608,0,0.99792,0.61056,0.32112,0.23328,0.04896,0,-0.13536
2005/3/4 4:45,2.2104,0,1.25856,1.4688,0.27072,0.22464,0.05472,0,-0.17424
2005/3/4 5:00,2.2752,0,1.52496,1.73088,0,0.22464,0.05184,0,-0.22464
2005/3/4 5:15,1.46592,0,1.38528,0.27936,0.0648,0.22464,0.04896,0,0.396
2005/3/4 5:30,1.692,0,1.50624,0.08496,0.4536,0.22464,0.08496,0,-0.0432
2005/3/4 5:45,1.87056,0,1.53936,0.83376,0.26496,0.23184,0.08496,0,-0.26928
2005/3/4 6:00,1.91808,0,1.51632,0.06912,0,0.22176,0.08784,0,-0.10944
2005/3/4 6:15,1.8792,0,1.53936,0.07056,0.14832,0.23184,0.09072,0,-0.03888
2005/3/4 6:30,2.21184,0,1.53216,0.15264,0.45504,0.22896,0.08352,0,-0.06048
2005/3/4 6:45,1.84752,0,1.85328,0.37872,0.19296,0.2304,0.08352,0,-0.1296
2005/3/4 7:00,3.00528,0,1.98432,0.08496,0,0.42336,0.0504,0,-0.1296
2005/3/4 7:15,2.63232,0,2.1744,0.12528,0.26352,0.85392,0.0864,0,-0.23184
2005/3/4 7:30,0.90144,0,1.45872,0.11376,0.39744,0.77472,0.08064,0,-0.1656
2005/3/4 7:45,0.0288,0,0.44208,0.10656,0,0.72288,0.08928,0,-0.0936
2005/3/4 8:00,0,0,0.18576,0.1008,0.00144,0.38304,0.0504,0,0.0432
2005/3/4 8:15,0,0,0.21312,0.11664,0.3816,0.22608,0.1152,0,-0.05616
2005/3/4 8:30,0,0,0.22032,0.11808,0.23904,0.22608,0.12384,0,-0.03168
2005/3/4 8:45,0,0,0.19872,0.09792,0,0.23328,0.0864,0,0.04752
2005/3/4 9:00,0,0,0.21744,0.11808,0.20592,0.2232,0.0792,0,0.00864
2005/3/4 9:15,0,0,0.18288,0.11088,0.41184,0.23184,0.08784,0,-0.00576
2005/3/4 9:30,0,0,0.19296,0.10368,0,0.22896,0.04896,0,0.07632
2005/3/4 9:45,0,0,0.17424,0.11376,0,0.2232,0.18288,0,0.03024
2005/3/4 10:00,0,0,0.19008,0.10368,0.38592,0.2304,0.08352,0,-0.0072
2005/3/4 10:15,0,0,0.1872,0.10512,0.17424,0.22896,0.0864,0,0.02304
2005/3/4 10:30,0,0,0.18864,0.10944,0,0.23184,0.05904,0,0.07776
2005/3/4 10:45,0,0,0.22176,0.16416,0.18432,0.22464,0.08208,0,0.0072
2005/3/4 11:00,0,0,0.21168,0.3168,0.396,0.23616,0.12672,0,0.01872
2005/3/4 11:15,0,0,0.18288,0.16128,0,0.2304,0.0864,0,0.06048
2005/3/4 11:30,0,0,0.18864,0.12816,0,0.23184,0.0576,0,0.05616
2005/3/4 11:45,0,0,0.18864,0.08352,0.3744,0.23472,0.15552,0,0.00864
2005/3/4 12:00,0,0,0.18432,0.07488,0.13536,0.22752,0.08928,0,0.04032